Hutchinson, MN

4:11 PM CDT on May 28, 2017 (GMT -0500)
Hutchinson Municipal-Butler

Weather History for KHCD - March, 2013

Change the Weather History Date:

Sunday, March 3, 2013

  Actual Average Record
Temperature  
Mean Temperature 24 °F -  
Max Temperature 31 °F 33 °F 50 °F (1981)
Min Temperature 16 °F 16 °F -16 °F (2014)
Degree Days  
Heating Degree Days 42    
Moisture  
Dew Point 18 °F    
Average Humidity 73    
Maximum Humidity 87    
Minimum Humidity 56    
Precipitation  
Precipitation 0.00 in - - ()
Sea Level Pressure  
Sea Level Pressure 30.00 in    
Wind  
Wind Speed 10 mph (ESE)    
Max Wind Speed 17 mph    
Max Gust Speed 22 mph    
Visibility 10 miles    
Events      
Averages and records for this station are not official NWS values.
T = Trace of Precipitation, MM = Missing Value Source: NWS Daily Summary

Daily Weather History Graph

Daily Weather History Graph

Search for Another Location

Airport or City:

Trip Planner

Search our weather history database for the weather conditions in past years. The results will help you decide how hot, cold, wet, or windy it might be!

Date:

Astronomy

Mar. 03, 2013 Rise Set
Actual Time 6:51 AM CST 6:08 PM CST
Civil Twilight 6:21 AM CST 6:37 PM CST
Nautical Twilight 5:48 AM CST 7:11 PM CST
Astronomical Twilight 5:14 AM CST 7:45 PM CST
Moon 12:03 AM CST (3/3) 9:50 AM CST (3/3)
Length of Visible Light 12h 15m
Length of Day
11h 16m
Waning Gibbous, 63% of the Moon is Illuminated
Mar 3
Waning Gibbous
Mar 4
Last Quarter
Mar 11
New
Mar 19
First Quarter
Mar 27
Full

Hourly Weather History & Observations

Time (CST) Temp. Windchill Dew Point Humidity Pressure Visibility Wind Dir Wind Speed Gust Speed Precip Events Conditions
12:14 AM 23.0 °F 13.9 °F 18.9 °F 84% 30.11 in 10.0 mi SE 8.1 mph - N/A   Overcast
12:34 AM 23.0 °F 14.7 °F 19.4 °F 86% 30.10 in 10.0 mi SE 6.9 mph - N/A   Overcast
12:54 AM 22.6 °F 13.4 °F 19.4 °F 87% 30.11 in 10.0 mi ESE 8.1 mph - N/A   Overcast
1:14 AM 22.5 °F 14.1 °F 19.2 °F 87% 30.10 in 10.0 mi East 6.9 mph - N/A   Overcast
2:01 AM 22.1 °F 13.7 °F 17.6 °F 83% 30.10 in 10.0 mi SE 6.9 mph - N/A   Overcast
2:35 AM 21.2 °F 12.6 °F 17.6 °F 86% 30.09 in 10.0 mi ESE 6.9 mph - N/A   Overcast
2:55 AM 21.2 °F 12.6 °F 17.6 °F 86% 30.08 in 10.0 mi ESE 6.9 mph - N/A   Overcast
3:15 AM 21.2 °F 10.9 °F 17.6 °F 86% 30.08 in 10.0 mi East 9.2 mph - N/A   Overcast
3:27 AM 21.7 °F 13.2 °F 17.1 °F 82% 30.07 in 10.0 mi ESE 6.9 mph - N/A   Overcast
3:33 AM 20.8 °F 12.1 °F 16.2 °F 82% 30.07 in 10.0 mi ESE 6.9 mph - N/A   Overcast
3:54 AM 19.8 °F 11.9 °F 15.3 °F 83% 30.06 in 10.0 mi ESE 5.8 mph - N/A   Scattered Clouds
4:14 AM 19.2 °F 10.2 °F 15.3 °F 85% 30.06 in 10.0 mi ESE 6.9 mph - N/A   Clear
4:34 AM 18.1 °F 8.9 °F 13.8 °F 83% 30.06 in 10.0 mi ESE 6.9 mph - N/A   Scattered Clouds
4:54 AM 19.2 °F 10.2 °F 14.5 °F 82% 30.06 in 10.0 mi ESE 6.9 mph - N/A   Scattered Clouds
5:14 AM 19.2 °F 8.4 °F 14.0 °F 80% 30.05 in 10.0 mi East 9.2 mph - N/A   Clear
5:34 AM 19.2 °F 9.3 °F 13.8 °F 80% 30.05 in 10.0 mi ESE 8.1 mph - N/A   Clear
5:54 AM 19.2 °F 8.4 °F 13.8 °F 80% 30.05 in 10.0 mi ESE 9.2 mph - N/A   Clear
6:14 AM 19.2 °F 8.4 °F 14.0 °F 80% 30.06 in 10.0 mi East 9.2 mph - N/A   Clear
6:34 AM 19.2 °F 9.3 °F 14.2 °F 81% 30.06 in 10.0 mi East 8.1 mph - N/A   Clear
6:54 AM 16.7 °F 7.2 °F 11.7 °F 81% 30.06 in 10.0 mi East 6.9 mph - N/A   Clear
7:14 AM 16.7 °F 7.2 °F 12.0 °F 82% 30.06 in 10.0 mi East 6.9 mph - N/A   Clear
7:34 AM 16.7 °F 7.2 °F 12.0 °F 82% 30.06 in 10.0 mi East 6.9 mph - N/A   Clear
7:53 AM 18.3 °F 9.1 °F 13.1 °F 80% 30.05 in 10.0 mi East 6.9 mph - N/A   Clear
8:14 AM 19.2 °F 8.4 °F 13.8 °F 80% 30.05 in 10.0 mi East 9.2 mph - N/A   Clear
8:34 AM 20.7 °F 9.5 °F 14.9 °F 78% 30.04 in 10.0 mi East 10.4 mph - N/A   Clear
9:14 AM 24.1 °F 13.1 °F 18.0 °F 77% 30.03 in 10.0 mi East 11.5 mph - N/A   Scattered Clouds
9:33 AM 24.4 °F 13.0 °F 18.0 °F 76% 30.03 in 10.0 mi ESE 12.7 mph - N/A   Mostly Cloudy
9:53 AM 25.9 °F 14.8 °F 19.6 °F 77% 30.03 in 10.0 mi ESE 12.7 mph - N/A   Overcast
10:14 AM 26.6 °F 15.7 °F 20.3 °F 77% 30.03 in 10.0 mi ESE 12.7 mph - N/A   Overcast
10:29 AM 26.6 °F 16.2 °F 20.1 °F 77% 30.03 in 10.0 mi ESE 11.5 mph - N/A   Overcast
10:54 AM 29.3 °F 19.1 °F 22.5 °F 76% 30.03 in 10.0 mi ESE 12.7 mph - N/A   Mostly Cloudy
11:14 AM 29.3 °F 19.1 °F 22.3 °F 75% 30.02 in 10.0 mi ESE 12.7 mph - N/A   Mostly Cloudy
11:30 AM 29.3 °F 18.6 °F 22.3 °F 75% 30.02 in 10.0 mi ESE 13.8 mph - N/A   Overcast
11:54 AM 29.3 °F 17.7 °F 22.1 °F 75% 30.01 in 10.0 mi ESE 16.1 mph - N/A   Overcast
12:14 PM 29.3 °F 17.7 °F 21.0 °F 71% 30.00 in 10.0 mi ESE 16.1 mph - N/A   Scattered Clouds
12:34 PM 30.0 °F 18.3 °F 20.5 °F 68% 29.99 in 10.0 mi ESE 17.3 mph - N/A   Clear
12:54 PM 30.6 °F 19.4 °F 19.6 °F 64% 29.99 in 10.0 mi ESE 16.1 mph - N/A   Clear
1:14 PM 30.0 °F 18.7 °F 18.3 °F 62% 29.98 in 10.0 mi ESE 16.1 mph - N/A   Mostly Cloudy
1:54 PM 31.8 °F 21.0 °F 17.8 °F 56% 29.96 in 10.0 mi ESE 16.1 mph - N/A   Clear
2:14 PM 30.6 °F 19.8 °F 16.5 °F 56% 29.96 in 10.0 mi ESE 15.0 mph - N/A   Clear
2:34 PM 31.8 °F 21.4 °F 18.7 °F 58% 29.95 in 10.0 mi ESE 15.0 mph - N/A   Clear
2:54 PM 31.8 °F 21.0 °F 19.0 °F 59% 29.95 in 10.0 mi ESE 16.1 mph - N/A   Clear
3:14 PM 31.8 °F 21.4 °F 19.2 °F 60% 29.95 in 10.0 mi ESE 15.0 mph - N/A   Clear
3:34 PM 31.6 °F 20.7 °F 19.2 °F 60% 29.94 in 10.0 mi ESE 16.1 mph - N/A   Clear
4:14 PM 31.3 °F 20.7 °F 19.2 °F 61% 29.93 in 10.0 mi ESE 15.0 mph - N/A   Clear
4:34 PM 30.4 °F 20.0 °F 19.4 °F 64% 29.94 in 10.0 mi ESE 13.8 mph - N/A   Clear
4:54 PM 29.3 °F 19.6 °F 19.2 °F 66% 29.94 in 10.0 mi ESE 11.5 mph - N/A   Clear
5:14 PM 29.3 °F 19.6 °F 19.8 °F 68% 29.93 in 10.0 mi ESE 11.5 mph - N/A   Clear
5:34 PM 29.3 °F 18.6 °F 19.2 °F 66% 29.93 in 10.0 mi ESE 13.8 mph - N/A   Scattered Clouds
5:54 PM 29.3 °F 18.6 °F 19.0 °F 66% 29.93 in 10.0 mi ESE 13.8 mph - N/A   Overcast
6:34 PM 29.3 °F 19.6 °F 20.7 °F 70% 29.94 in 10.0 mi East 11.5 mph - N/A   Overcast
6:54 PM 29.3 °F 19.1 °F 20.3 °F 69% 29.94 in 10.0 mi East 12.7 mph - N/A   Overcast
7:14 PM 29.3 °F 18.6 °F 19.6 °F 67% 29.93 in 10.0 mi East 13.8 mph - N/A   Overcast
7:34 PM 29.3 °F 18.2 °F 19.0 °F 66% 29.94 in 10.0 mi East 15.0 mph - N/A   Overcast
7:54 PM 29.3 °F 18.6 °F 18.5 °F 64% 29.94 in 10.0 mi ESE 13.8 mph - N/A   Overcast
8:14 PM 29.3 °F 17.7 °F 18.3 °F 64% 29.94 in 10.0 mi East 16.1 mph - N/A   Scattered Clouds
8:34 PM 29.3 °F 18.2 °F 17.6 °F 62% 29.94 in 10.0 mi ESE 15.0 mph - N/A   Mostly Cloudy
8:54 PM 29.3 °F 18.6 °F 19.0 °F 66% 29.94 in 10.0 mi ESE 13.8 mph - N/A   Overcast
9:14 PM 29.3 °F 18.2 °F 19.6 °F 67% 29.93 in 10.0 mi ESE 15.0 mph - N/A   Overcast
9:34 PM 29.3 °F 18.2 °F 20.1 °F 69% 29.93 in 10.0 mi ESE 15.0 mph - N/A   Overcast
9:54 PM 29.3 °F 18.6 °F 20.3 °F 69% 29.93 in 10.0 mi ESE 13.8 mph - N/A   Overcast
10:14 PM 29.3 °F 19.1 °F 20.5 °F 70% 29.93 in 10.0 mi ESE 12.7 mph - N/A   Overcast
10:34 PM 29.3 °F 19.6 °F 20.7 °F 70% 29.93 in 10.0 mi ESE 11.5 mph - N/A   Overcast
10:54 PM 29.3 °F 20.2 °F 20.5 °F 70% 29.93 in 10.0 mi ESE 10.4 mph - N/A   Overcast
11:13 PM 28.9 °F 21.1 °F 20.8 °F 72% 29.94 in 10.0 mi SE 8.1 mph - N/A   Overcast
11:34 PM 26.6 °F 17.5 °F 19.8 °F 75% 29.94 in 10.0 mi SE 9.2 mph - N/A   Overcast
11:54 PM 26.6 °F 14.7 °F 19.8 °F 75% 29.94 in 4.0 mi SE 15.0 mph 21.9 mph N/A   Overcast